Regional Weather Roundup
Issued by NWS Jackson, KY

Home | Current Version | Previous Version | Graphics & Text | Print | Product List | Glossary On
Versions: 1 2 3 4 5 6 7 8 9 10 11 12 13 14 15 16 17 18 19 20 21 22 23 24 25 26 27 28 29 30 31 32 33 34 35 36 37 38 39 40 41 42 43 44 45 46 47 48 49 50
000
ASUS43 KJKL 051610
RWRJKL

EAST KENTUCKY HOURLY WEATHER ROUNDUP
NATIONAL WEATHER SERVICE JACKSON KY
1200 PM EDT TUE MAY 05 2015

NOTE: "FAIR" INDICATES FEW OR NO CLOUDS BELOW 12,000 FEET WITH
NO SIGNIFICANT WEATHER AND/OR OBSTRUCTIONS TO VISIBILITY.

* THESE REPORTS ARE NOT UNDER NWS QUALITY CONTROL AND MAY NOT
  REPORT WEATHER SUCH AS PRECIPITATION AND FOG.

KYZ079-080-083-085-087-088-110-112-115-119-120-051700
...EASTERN KENTUCKY...

CITY           SKY/WX    TMP DP  RH WIND       PRES   REMARKS
JACKSON        SUNNY     78  54  43 VRB5      30.34F
LONDON         SUNNY     78  49  35 W5        30.34S
SOMERSET*      SUNNY     73  54  49 W3        30.34S
MONTICELLO*    SUNNY     81  53  37 W6        30.35F
MIDDLESBORO*   SUNNY     78  55  45 CALM      30.34F
HARLAN APT*    SUNNY     77  50  38 SW6       30.35F
HAZARD APT*    SUNNY     77  52  41 CALM      30.34F
BLACK MTN*       N/A     64  50  59 VRB1        N/A
PIKEVILLE APT* SUNNY     75  55  50 W6        30.35S
BIG SANDY*     SUNNY     77  56  48 SW5       30.33F
MOREHEAD APT*  SUNNY     79  54  41 VRB7G15   30.33S
$$

KYZ035-036-041-042-044-050-067-078-099-051700
...CENTRAL KENTUCKY...

CITY           SKY/WX    TMP DP  RH WIND       PRES   REMARKS
MT STERLING*   SUNNY     77  55  47 W7        30.33S
FLEMING/MASON* SUNNY     79  55  44 W7        30.31S
DANVILLE*      SUNNY     79  55  44 SW5       30.33S
RICHMOND*      SUNNY     77  55  47 W8        30.32S
LEXINGTON      SUNNY     78  57  48 MISG      30.31S
FRANKFORT      SUNNY     79  54  41 SW10      30.29R
$$

KYZ091>093-OHZ055-061-077-WVZ005-015-034-035-042-051700
...SOUTHERN OHIO/WEST VIRGINIA...

CITY           SKY/WX    TMP DP  RH WIND       PRES   REMARKS
COVINGTON      MOSUNNY   79  56  45 W9        30.27F
COLUMBUS       MOSUNNY   71  61  70 SE5       30.28F
DAYTON         PTSUNNY   75  61  61 SW7       30.28S
WILMINGTON     SUNNY     76  56  49 W8        30.28S
HUNTINGTON     SUNNY     79  57  46 MISG      30.30S
CHARLESTON     MOSUNNY   78  55  44 SW7       30.31F
PINEVILLE*     SUNNY     78  54  43 MISG      30.39F
BECKLEY        MOSUNNY   75  49  39 VRB3      30.36F
BLUEFIELD      MOSUNNY   75  47  36 CALM      30.39F
$$

VAZ002-007-008-TNZ017-027-036-066-071-051700
...SOUTHWEST VIRGINIA/EAST TENNESSEE...

CITY           SKY/WX    TMP DP  RH WIND       PRES   REMARKS
WISE*          PTSUNNY   72  48  43 N5        30.40S
JONESVILLE*    SUNNY     75  50  41 CALM      30.37F
ABINGDON*      SUNNY     74  53  48 CALM      30.37F
BRISTOL        SUNNY     76  53  44 W5        30.36F
KNOXVILLE      MOSUNNY   75  55  49 CALM      30.34S
OAK RIDGE      SUNNY     76  54  46 VRB5      30.35F
CROSSVILLE     PTSUNNY   76  50  40 CALM      30.36S
NASHVILLE      MOSUNNY   81  55  40 SW3       30.30S
$$

...KEY TO REMARKS...
VSB - VISIBILITY IN MILES
WCI - WIND CHILL INDEX
HX  - HEAT INDEX

$$



USA.gov is the U.S. government's official web portal to all federal, state and local government web resources and services.